Temp_Advection
nan nan nan nan nan nan nan nan nan nan nan nan nan nan nan nan nan nan nan nan nan nan nan nan nan nan nan nan nan nan nan nan nan nan nan nan nan nan nan nan nan nan nan
nan -0 -0 -0 0 0 0 0 0 -0 0 0 -0 -0 -0 -0 0 0 -0 0 0 0 0 0 0 0 0 -0 -0 0 0 -0 0 0 0 0 0 0 0 0 0 0 nan
nan -0 -0 -0 -0 0 0 0 0 0 0 -1 -1 -0 0 -0 -0 0 0 -0 0 0 0 0 0 -0 0 0 0 -0 -0 -0 -0 0 0 0 0 0 0 0 0 0 nan
nan 0 -0 -0 -0 -0 0 0 0 1 0 -0 -0 -0 -1 -0 0 -0 0 0 0 0 0 0 0 0 0 0 0 0 -0 -1 -0 0 0 0 0 0 0 0 0 -0 nan
nan 0 -0 -0 0 0 0 -0 -0 0 -0 0 0 -0 -1 -1 -0 0 -0 -0 -0 0 0 0 0 0 0 0 0 0 -0 0 1 -0 -0 0 0 -0 0 0 -0 -0 nan
nan -0 -0 0 0 0 -0 -0 -0 -0 0 0 1 0 -1 -0 -0 -1 0 0 -0 0 0 0 0 0 0 0 0 0 0 0 -0 -0 0 0 -0 0 -0 -0 -0 0 nan
nan -0 -1 -0 0 0 -0 0 0 -0 -0 0 -0 -0 -0 -1 -0 -0 -1 -0 1 -0 -0 -0 0 -0 0 0 0 0 0 0 0 -0 -1 -0 0 0 -0 -0 -0 0 nan
nan -0 -0 -1 -0 0 1 1 0 -0 -0 0 0 -0 -1 -1 -1 -1 -1 -1 -1 0 1 0 -0 -0 0 0 0 0 0 0 0 0 -0 -0 -0 -0 0 -0 -0 0 nan
nan 0 0 0 0 -0 -0 -0 -0 0 -0 -0 1 -0 -1 -0 -0 -0 -1 -1 -0 1 0 0 -1 -1 0 0 0 0 0 0 -0 -0 -0 -0 0 0 0 -0 -0 -0 nan
nan 1 0 0 0 -0 -0 -0 -0 -0 -0 -0 -1 -0 0 -0 -1 -1 -0 -0 -0 -0 1 -0 -2 -0 1 0 1 0 0 0 0 0 0 0 0 -0 -0 -0 -0 -0 nan
nan -0 0 -0 -0 -0 -0 -0 -0 0 0 0 0 -0 -0 -0 -0 -1 -2 -1 -1 -0 -0 -1 -0 0 1 1 0 1 1 1 1 0 -0 -0 -0 0 0 -0 -0 -0 nan
nan -0 -0 -0 -0 -0 -0 -0 0 0 0 0 0 0 -0 -0 -1 -1 -1 -0 -0 -1 -1 -0 -1 0 0 -0 2 2 1 0 -0 -0 -0 -0 -0 -0 -0 -0 -0 -0 nan
nan -0 -0 -0 -0 -0 0 0 -0 -0 0 0 0 0 -0 -0 -0 -1 -1 -1 -0 0 -1 -2 -0 -0 -0 0 1 1 -1 -1 0 0 -0 -0 0 -0 -0 -0 -0 -0 nan
nan -0 -0 -0 -0 -0 -0 0 0 0 0 -0 -0 0 0 -0 -1 -1 -0 -0 -1 -0 -0 -1 -1 -1 -0 -1 -0 0 0 1 0 -0 -0 -1 -0 0 0 -0 -0 0 nan
nan -0 -0 -0 -0 -0 -0 -0 -0 0 0 0 0 -0 -0 0 -0 -1 -1 -0 -1 -1 -1 -0 -1 -0 -0 -0 -0 -0 0 0 -0 -0 0 -0 -0 0 -0 0 1 0 nan
nan 0 0 0 -0 -0 0 0 -0 -0 -0 -0 0 -0 -0 -0 -0 -1 -1 -0 -0 -0 -1 -1 -1 -1 -0 -0 -0 -0 -0 -0 -0 0 1 0 -1 -1 0 -0 0 1 nan
nan -0 -0 -0 0 0 0 0 0 0 -0 -0 0 0 -0 -0 -0 -0 -1 -1 -0 -0 -0 -1 -1 -1 -1 -1 -0 -0 -0 0 -0 -0 0 0 0 0 0 0 0 0 nan
nan -1 -1 -1 -0 -0 0 0 0 0 0 -0 0 0 0 -0 -0 -0 -0 -0 -1 -1 -1 -1 -1 -1 -0 -0 -0 -0 -0 -0 0 0 0 0 0 0 -0 -0 0 0 nan
nan -0 -1 -1 -1 -1 -0 0 -0 0 0 0 -0 0 0 -0 -0 -1 -1 -1 -0 -0 -0 0 -1 -1 -0 -0 -0 0 0 0 0 -0 -0 0 0 -0 -0 -0 -0 -1 nan
nan -0 0 -0 -0 -1 -1 -0 -0 -0 -0 -0 -0 0 -0 -0 0 -0 -0 -0 0 -0 -0 -0 -0 -1 -0 0 0 0 -0 -0 -0 0 0 0 0 0 -0 -0 -0 -0 nan
nan -0 -0 -0 0 -0 -0 -1 -0 -0 -1 -1 -0 -0 -0 -0 -0 0 -0 -0 0 -0 -0 0 0 0 -0 0 0 -0 -0 -0 -0 0 -0 -0 0 0 0 -0 -1 -1 nan
nan 0 -0 -0 -0 -0 0 -0 -1 -1 -1 -1 -1 -0 -0 -0 -0 -0 -0 -0 -0 0 0 0 0 -0 -0 -0 -0 -0 -0 -0 -0 -0 -0 -0 0 1 0 -0 -0 -0 nan
nan 0 -0 -0 -0 -0 -0 0 0 -1 -2 -0 -0 -1 -0 -0 -0 -0 -0 -0 -0 -0 0 0 0 -0 -0 -0 0 0 -0 -0 -0 -0 -0 -0 -0 1 0 -0 0 -0 nan
nan -0 -0 -0 -0 -0 -1 -1 -0 -0 -1 -1 -1 -0 -1 -0 -0 -1 -1 -0 0 0 0 0 0 0 0 0 0 -0 -0 -0 -0 -0 0 -0 -0 0 0 -0 0 0 nan
nan 0 -0 -0 -0 -0 0 -0 -1 -0 -0 -0 -0 -0 -0 -1 -1 -0 -0 -1 -0 -0 -0 0 1 0 -0 -0 0 0 0 -0 -0 -0 0 0 -0 0 0 -0 -0 -0 nan
nan nan nan nan nan nan nan nan nan nan nan nan nan nan nan nan nan nan nan nan nan nan nan nan nan nan nan nan nan nan nan nan nan nan nan nan nan nan nan nan nan nan nan
Wind_Speed
31 30 29 27 25 24 24 25 27 29 28 29 30 30 29 30 29 28 27 25 25 23 21 19 20 19 17 18 18 18 16 15 14 12 11 10 9 8 7 6 6 6 6
33 33 33 33 32 30 27 26 25 26 27 29 33 33 32 32 33 32 31 28 28 27 25 24 22 22 21 20 20 20 19 18 16 15 13 12 11 9 8 8 7 7 8
34 34 35 36 36 35 34 32 30 27 26 28 33 34 36 35 36 35 35 33 31 30 30 28 27 24 24 23 22 22 21 20 19 17 16 15 13 12 10 9 8 8 11
35 36 36 36 35 36 37 37 35 33 29 29 29 33 35 39 39 37 38 38 35 33 32 33 30 29 27 26 23 23 23 22 21 20 19 18 16 14 13 11 10 10 12
40 40 40 39 36 36 36 37 38 37 36 35 33 32 31 38 46 38 42 41 40 36 35 35 34 31 30 29 27 25 24 24 23 22 21 20 18 17 15 13 12 13 13
33 37 42 44 40 39 38 36 37 39 39 39 38 36 34 34 30 39 45 42 44 41 39 37 35 36 34 32 30 29 26 24 25 24 23 22 22 20 18 15 15 16 15
26 28 31 34 38 42 39 37 35 36 37 37 38 40 38 39 39 37 36 49 48 44 42 42 39 36 37 35 34 32 30 28 26 25 24 23 23 22 21 19 17 17 18
23 25 25 26 27 34 39 37 33 34 36 34 31 26 28 30 32 38 38 43 45 40 45 46 43 39 38 37 36 34 31 30 28 27 26 25 26 25 24 23 21 20 20
21 22 23 24 22 22 28 31 33 34 35 37 34 24 16 24 22 29 33 36 39 44 41 41 45 40 39 39 38 35 33 31 29 27 27 26 26 25 27 25 26 25 23
23 24 24 22 21 21 23 24 24 27 29 32 31 34 36 33 22 21 24 28 31 39 39 42 48 44 42 41 40 37 34 32 30 28 27 27 26 26 25 25 26 25 24
30 24 23 23 22 21 22 22 24 26 27 29 30 29 32 35 37 37 35 29 27 30 32 32 33 38 42 43 46 43 40 39 34 32 30 27 28 29 28 27 26 27 25
26 20 20 20 20 19 21 22 23 24 26 29 30 29 31 29 30 31 35 38 39 38 35 27 29 31 37 41 44 42 39 31 27 29 31 33 30 30 31 28 27 27 26
24 11 13 14 15 16 17 19 21 23 25 27 29 31 32 36 36 36 34 35 33 34 34 46 43 36 34 31 34 36 34 40 31 22 22 26 31 32 32 31 29 29 28
16 6 8 10 14 15 16 17 19 22 23 26 28 29 32 34 35 41 39 35 34 31 34 36 39 44 42 40 37 31 30 29 39 44 39 31 27 29 31 32 32 32 30
13 10 10 11 12 15 16 18 20 22 22 25 27 28 30 33 35 36 41 41 36 32 33 28 33 36 35 35 35 31 30 34 32 32 32 33 34 31 30 32 33 34 35
15 15 14 13 14 17 18 19 21 22 23 25 26 28 29 30 32 35 38 40 38 39 34 30 28 30 27 28 32 32 34 33 31 32 35 36 39 40 35 33 35 34 36
14 15 16 17 17 17 17 19 20 21 23 24 25 28 30 31 33 33 35 35 38 36 33 37 31 31 29 28 29 28 28 29 31 34 34 35 37 37 39 36 35 36 37
15 17 17 17 18 17 18 18 20 21 23 25 27 29 31 29 29 31 34 33 34 34 32 36 31 33 31 28 27 29 30 29 30 31 28 28 28 31 33 36 37 36 33
15 16 18 18 18 18 18 18 21 21 23 24 22 25 28 27 29 28 29 31 30 34 32 33 31 32 28 27 26 26 26 29 32 34 33 32 31 33 35 35 36 36 37
16 16 18 18 18 18 20 21 21 23 22 22 22 24 23 21 23 25 27 26 26 30 27 29 32 31 28 28 27 28 29 30 31 30 30 29 30 31 31 31 31 31 33
14 14 15 16 18 18 18 20 23 24 23 22 21 19 17 17 20 21 22 24 21 20 22 26 29 26 27 26 30 29 29 28 28 26 25 27 26 28 29 30 32 30 30
16 16 16 15 16 18 19 20 22 25 24 22 20 18 16 14 14 16 17 17 16 17 17 19 23 24 24 22 25 23 21 22 25 24 26 27 25 26 22 22 22 25 28
16 15 16 16 16 17 17 19 19 21 27 27 23 19 18 16 15 17 16 17 17 18 20 20 21 21 21 21 20 22 24 25 27 23 24 26 23 26 25 22 23 20 21
17 17 16 15 15 16 16 16 19 21 19 20 23 22 19 18 17 17 17 17 18 20 21 21 23 23 23 23 24 25 26 26 26 24 25 28 25 27 29 29 30 27 23
17 17 18 17 16 16 18 17 18 15 13 8 10 16 18 19 19 17 15 15 16 18 19 20 20 21 23 23 22 26 28 29 29 30 30 30 32 33 29 32 33 30 27
18 17 17 17 17 16 16 15 15 13 9 7 8 9 12 15 19 18 19 17 17 18 18 19 21 22 22 24 25 26 28 29 30 27 23 22 23 29 27 27 27 28 28
Wind_Direction
267 267 267 268 266 266 266 264 262 263 262 263 261 257 257 256 254 253 252 249 248 245 244 236 239 250 239 231 235 235 232 233 234 238 243 249 254 261 263 262 287 294 310
268 265 265 265 264 264 264 263 261 264 267 265 263 260 257 257 256 253 252 250 248 246 244 242 237 241 245 238 233 236 238 236 236 239 244 250 255 256 254 258 272 285 305
270 268 265 262 261 262 263 262 263 262 261 264 267 264 259 256 256 254 252 250 248 247 244 242 242 238 243 242 239 236 238 240 240 240 241 247 252 255 253 256 265 282 287
270 270 269 265 263 261 261 261 262 262 261 262 265 267 270 265 256 252 253 251 248 248 247 243 242 241 238 240 244 239 237 239 240 242 243 244 248 251 252 252 256 271 286
269 268 268 268 266 263 261 262 261 260 261 260 261 260 264 268 264 260 252 249 249 246 247 247 242 243 242 240 240 244 240 236 240 244 244 246 248 249 252 249 254 265 272
277 272 266 263 262 262 261 260 261 260 261 262 264 266 263 255 262 261 261 252 248 244 245 246 245 242 242 242 242 243 244 245 240 237 240 245 248 249 253 252 252 260 267
281 278 276 271 262 257 258 260 261 263 262 263 265 266 265 259 258 261 265 256 256 242 243 243 243 243 242 243 243 242 244 246 245 248 247 245 247 249 253 253 251 251 260
284 281 279 279 272 261 254 255 257 262 265 264 264 266 268 269 265 257 257 257 259 259 255 245 243 241 242 242 242 242 244 246 247 248 248 251 251 250 250 249 252 252 253
287 282 281 280 277 268 260 257 256 258 262 263 259 245 260 251 266 262 257 256 260 260 254 247 242 242 241 241 241 240 243 246 248 249 252 251 253 252 252 252 251 251 252
295 279 276 275 275 274 268 265 262 263 264 266 267 260 249 248 261 267 259 255 251 251 252 250 249 247 243 241 241 239 238 243 247 249 252 253 253 255 255 254 252 249 251
295 286 272 270 270 272 272 269 263 260 259 260 262 262 261 257 252 254 258 253 256 251 251 252 254 248 245 240 243 242 240 239 243 245 250 254 254 256 255 253 258 255 251
308 277 273 264 270 274 272 271 267 263 261 263 264 264 258 253 251 247 248 251 250 249 250 253 255 258 254 251 253 253 257 257 255 247 246 254 258 254 255 254 256 257 253
331 280 273 260 267 271 276 275 272 266 262 264 266 267 264 258 255 253 255 257 250 249 246 251 250 250 256 250 247 249 254 253 250 259 267 265 257 259 256 253 253 255 254
341 313 311 277 273 274 283 284 276 271 267 266 267 267 267 265 260 255 255 256 258 255 251 250 251 247 249 254 259 259 253 242 239 249 257 273 267 259 259 255 254 250 251
352 344 324 305 291 284 287 289 285 283 277 274 272 271 270 267 264 260 257 256 254 255 250 253 248 244 247 250 254 254 250 243 243 243 246 254 260 259 256 262 259 252 248
343 334 325 310 298 293 292 291 289 288 286 284 282 278 276 274 268 262 257 256 252 251 259 253 253 255 252 251 252 254 254 255 251 244 245 242 246 251 258 258 257 257 254
318 317 311 307 303 300 297 290 287 286 285 285 282 283 282 280 271 268 262 258 255 251 247 257 256 256 255 255 253 253 255 256 252 249 248 246 248 251 252 252 252 252 252
312 313 307 304 304 306 301 293 291 290 288 285 283 283 279 278 274 274 264 261 258 255 250 251 250 258 256 256 257 256 252 249 255 253 243 247 248 244 246 252 251 253 250
307 312 313 312 310 309 305 295 293 290 286 294 285 288 288 282 275 269 259 256 262 252 247 248 247 256 256 254 255 253 251 252 255 254 252 247 249 253 258 260 257 256 255
327 320 312 310 308 307 302 296 293 287 286 287 289 294 295 291 272 261 261 258 257 258 251 243 247 253 256 257 256 256 255 256 258 259 260 258 256 258 262 258 259 255 253
329 327 323 321 310 304 299 290 288 289 285 287 287 285 287 288 272 265 263 260 258 254 250 246 250 252 254 254 257 256 256 264 268 263 262 256 263 272 265 263 257 255 253
326 324 321 320 316 314 315 307 292 285 286 284 284 284 277 277 275 269 261 257 252 255 251 252 254 255 258 258 257 258 261 259 263 268 265 257 264 284 279 264 256 247 244
332 331 329 330 328 322 319 318 315 303 276 273 279 283 280 279 276 270 265 262 257 254 252 256 255 255 256 257 259 257 259 257 260 264 264 270 262 261 273 273 264 259 252
333 334 335 336 338 335 331 335 336 326 309 275 274 273 278 275 275 277 274 260 252 250 249 250 256 260 258 259 259 256 258 260 260 261 261 266 264 258 259 270 265 273 270
334 338 337 339 341 341 341 348 349 351 348 325 278 272 273 275 272 275 276 274 265 261 256 253 257 262 266 266 266 269 263 263 268 266 264 263 264 267 265 275 276 274 269
334 337 340 338 340 344 342 351 358 2 356 337 313 302 297 292 285 277 269 262 268 264 262 270 269 266 264 266 264 262 262 259 263 260 251 244 247 263 265 266 256 258 260
Height
1532 1532 1532 1532 1533 1533 1533 1533 1533 1534 1534 1535 1536 1536 1537 1537 1538 1539 1539 1541 1542 1544 1545 1545 1546 1545 1545 1546 1547 1548 1549 1549 1550 1551 1551 1551 1551 1551 1550 1550 1550 1549 1548
1525 1525 1525 1525 1526 1526 1527 1527 1527 1527 1527 1528 1529 1530 1531 1531 1532 1533 1534 1535 1537 1538 1540 1541 1542 1542 1542 1542 1542 1543 1544 1545 1546 1547 1548 1548 1548 1548 1548 1548 1547 1547 1546
1518 1517 1517 1517 1518 1519 1519 1520 1520 1520 1520 1520 1521 1522 1523 1524 1525 1527 1528 1529 1530 1531 1533 1535 1536 1538 1539 1539 1539 1539 1539 1540 1542 1543 1544 1545 1545 1545 1545 1545 1545 1544 1544
1510 1509 1508 1508 1510 1511 1511 1511 1512 1513 1513 1514 1514 1514 1515 1515 1517 1519 1520 1521 1522 1524 1526 1527 1530 1531 1533 1534 1535 1535 1535 1535 1536 1537 1538 1540 1541 1541 1542 1542 1542 1542 1541
1501 1500 1499 1499 1502 1501 1502 1503 1503 1504 1505 1506 1507 1507 1507 1507 1507 1510 1511 1513 1514 1514 1517 1520 1522 1524 1526 1527 1528 1530 1530 1530 1531 1532 1533 1534 1535 1536 1537 1538 1538 1538 1538
1490 1489 1488 1489 1491 1492 1492 1493 1494 1496 1496 1497 1497 1497 1499 1500 1499 1498 1502 1503 1504 1505 1506 1510 1513 1514 1517 1520 1521 1523 1525 1525 1526 1526 1528 1529 1530 1531 1532 1533 1534 1534 1534
1482 1480 1478 1478 1480 1481 1483 1485 1486 1486 1487 1489 1489 1488 1488 1489 1490 1490 1491 1491 1488 1488 1495 1500 1503 1505 1507 1511 1514 1515 1517 1519 1520 1521 1522 1523 1524 1525 1526 1527 1528 1529 1529
1475 1473 1471 1470 1470 1470 1472 1475 1478 1478 1478 1481 1482 1483 1480 1481 1478 1480 1482 1481 1480 1482 1487 1489 1495 1494 1497 1501 1505 1507 1509 1512 1513 1514 1515 1517 1518 1519 1520 1521 1522 1523 1523
1469 1467 1466 1465 1463 1464 1463 1465 1468 1470 1470 1471 1474 1476 1476 1471 1474 1472 1471 1472 1472 1472 1477 1472 1483 1482 1487 1491 1496 1498 1501 1504 1507 1507 1508 1509 1511 1512 1513 1514 1515 1516 1517
1463 1461 1459 1459 1458 1459 1459 1459 1461 1463 1464 1463 1466 1467 1466 1467 1467 1465 1464 1464 1465 1464 1465 1467 1471 1473 1478 1481 1485 1488 1492 1496 1498 1500 1501 1502 1503 1505 1506 1507 1508 1509 1510
1455 1452 1452 1453 1453 1452 1454 1453 1454 1454 1455 1456 1456 1458 1458 1458 1460 1461 1456 1458 1459 1458 1457 1458 1460 1462 1468 1471 1472 1477 1481 1485 1488 1490 1492 1494 1495 1497 1498 1499 1501 1503 1503
1442 1443 1444 1446 1447 1447 1448 1447 1448 1449 1450 1449 1449 1450 1451 1451 1451 1452 1450 1449 1450 1451 1453 1454 1455 1457 1459 1460 1463 1464 1467 1467 1471 1477 1482 1485 1486 1489 1491 1492 1493 1495 1497
1435 1435 1437 1440 1442 1442 1442 1441 1441 1442 1442 1442 1443 1443 1443 1443 1444 1443 1444 1441 1441 1442 1444 1447 1449 1451 1452 1453 1456 1459 1459 1461 1467 1470 1474 1476 1477 1479 1482 1484 1486 1488 1489
1436 1435 1435 1436 1437 1437 1436 1436 1435 1435 1435 1435 1435 1435 1435 1434 1435 1435 1436 1436 1435 1434 1435 1435 1438 1440 1444 1445 1449 1452 1453 1454 1456 1464 1467 1469 1469 1471 1474 1475 1477 1479 1481
1437 1434 1434 1433 1434 1433 1432 1431 1430 1429 1429 1428 1427 1426 1425 1425 1425 1426 1427 1428 1428 1427 1427 1428 1429 1432 1435 1438 1441 1444 1445 1448 1452 1455 1456 1461 1464 1464 1466 1466 1467 1470 1472
1436 1434 1433 1432 1431 1430 1429 1427 1425 1424 1423 1421 1420 1419 1418 1417 1417 1417 1417 1419 1419 1419 1419 1423 1423 1426 1428 1430 1433 1435 1437 1440 1443 1446 1447 1451 1454 1454 1458 1457 1457 1461 1463
1435 1432 1430 1429 1426 1425 1423 1421 1420 1418 1417 1415 1414 1412 1410 1409 1408 1408 1409 1410 1410 1411 1411 1413 1417 1418 1421 1422 1425 1427 1429 1430 1433 1436 1439 1442 1444 1444 1447 1449 1449 1449 1453
1431 1429 1427 1424 1422 1420 1418 1416 1414 1413 1411 1410 1408 1406 1403 1402 1400 1400 1401 1401 1402 1403 1404 1405 1409 1410 1413 1415 1418 1419 1420 1422 1424 1427 1429 1431 1434 1436 1438 1440 1440 1443 1442
1428 1425 1423 1420 1417 1415 1413 1411 1409 1407 1406 1405 1402 1400 1396 1394 1392 1392 1392 1392 1394 1395 1394 1397 1400 1403 1406 1408 1410 1411 1412 1413 1415 1418 1420 1422 1425 1427 1429 1430 1432 1431 1431
1425 1423 1419 1416 1414 1411 1408 1406 1404 1401 1399 1398 1396 1393 1390 1387 1386 1386 1387 1388 1387 1387 1388 1390 1393 1396 1398 1399 1401 1402 1403 1406 1408 1410 1412 1414 1415 1417 1420 1421 1422 1422 1424
1422 1418 1416 1414 1410 1406 1403 1400 1398 1396 1393 1391 1390 1388 1386 1384 1382 1382 1382 1381 1381 1381 1382 1384 1386 1389 1390 1392 1392 1394 1396 1398 1398 1401 1403 1404 1406 1409 1410 1413 1414 1414 1414
1418 1415 1412 1409 1406 1403 1399 1395 1392 1389 1388 1385 1384 1383 1382 1380 1380 1378 1378 1377 1378 1377 1377 1379 1381 1382 1384 1385 1387 1388 1389 1391 1391 1393 1394 1394 1396 1398 1403 1405 1405 1404 1402
1414 1410 1407 1404 1401 1398 1394 1391 1387 1383 1380 1380 1379 1378 1377 1376 1375 1374 1373 1373 1372 1372 1373 1374 1375 1376 1377 1378 1381 1381 1382 1383 1383 1386 1387 1385 1387 1390 1396 1396 1396 1396 1394
1410 1407 1403 1399 1395 1392 1389 1386 1382 1377 1372 1371 1373 1373 1372 1371 1371 1370 1369 1367 1367 1367 1368 1369 1370 1371 1371 1372 1373 1375 1375 1375 1376 1378 1378 1377 1380 1383 1388 1386 1386 1387 1387
1407 1404 1400 1397 1393 1388 1385 1382 1378 1373 1370 1369 1368 1368 1367 1367 1366 1365 1365 1364 1363 1363 1363 1364 1364 1365 1365 1366 1367 1368 1367 1369 1368 1369 1372 1371 1374 1376 1377 1377 1377 1378 1378
1404 1401 1397 1394 1391 1387 1382 1378 1376 1372 1369 1367 1366 1365 1364 1362 1360 1360 1359 1359 1358 1358 1358 1358 1358 1358 1358 1359 1359 1360 1360 1360 1362 1363 1364 1365 1367 1369 1369 1368 1369 1369 1369